Location: Unspecified
(0.0000°N, 0.0000°E)
Time: 02:05:17
(UTC+00:00)

CAPRICORN - Visible Passes

Search period start: 22 March 2019 00:00
Search period end: 01 April 2019 00:00
Orbit: 325 x 40040 km, 64.5° (Epoch: 16 April)

Date Brightness Start Highest point End Pass type
(mag) Time Alt. Az. Time Alt. Az. Time Alt. Az.
22 Mar ? 04:10:19 10° ENE 07:35:54 35° NE 09:54:43 10° NNE visible
23 Mar ? 04:05:36 10° ENE 07:31:40 35° NE 09:50:49 10° NNE visible
24 Mar ? 04:00:53 10° ENE 07:27:25 35° NE 09:46:55 10° NNE visible
25 Mar ? 03:56:10 10° ENE 07:23:11 36° NE 09:43:01 10° NNE visible
26 Mar ? 03:51:28 10° ENE 07:18:56 36° NE 09:39:07 10° NNE visible
27 Mar ? 03:46:45 10° ENE 07:14:42 36° NE 09:35:14 10° NNE visible
28 Mar ? 03:42:02 10° ENE 07:10:27 36° NE 09:31:20 10° NNE visible
29 Mar ? 03:37:19 10° ENE 07:06:12 36° NE 09:27:26 10° NNE visible
30 Mar ? 03:32:36 10° ENE 07:01:58 36° NE 09:23:32 10° NNE visible
31 Mar ? 03:27:54 10° ENE 06:57:43 36° NE 09:19:38 10° NNE visible
